カタログに戻る

STARLINK-31604

運用中通信VLEO
NORAD 59214·PAYLOAD·🇺🇸 United States

打ち上げ Mar 11, 2024 から Vandenberg Space Force Base

Loading…

次のパス (今後24時間)

TLE

最新Source: CelesTrak SupGP

元期: Sep 15, 2026, 01:55 UTC

1 59214C 24046P   26258.08034722  .00060949  00000+0  18004-2 0  2586
2 59214  53.1601 351.3264 0001160  86.0964  30.8612 15.34366442    13

AllMySatでSTARLINK-31604をリアルタイム追跡

Download on the App Store